User: anonymous   Login
Location: Unspecified
(0.0000°N, 0.0000°E)
Time: 12:18:18
(UTC+00:00)
Language:

MOST - Orbit

View from above orbital plane
View from above orbital plane
View from above satellite
View from above satellite

Ground track
Ground track

The orbit data is extracted from the following two-line orbital elements,

1 27843U 03031D   18293.54981851  .00000000  00000-0  20468-4 0  9999
2 27843  98.7137 299.6542 0010766  45.5097 314.6958 14.20576429793575
Epoch (UTC): 20 October 2018 13:11:44
Eccentricity: 0.0010766
inclination: 98.7137°
perigee height: 815 km
apogee height: 831 km
right ascension of ascending node: 299.6542°
argument of perigee: 45.5097°
revolutions per day: 14.20576429
mean anomaly at epoch: 314.6958°
orbit number at epoch: 79357

The dashed part of the orbit path shows where the satellite is in the earth's shadow,  

DLR